QPF
0.13 0.10 0.09 0.08 0.08 0.09 0.08 0.07 0.06 0.05 0.06 0.06 0.05 0.05 0.07 0.09 0.08 0.08 0.09 0.11 0.12 0.13 0.14 0.16 0.15 0.13 0.13 0.14 0.13 0.11 0.09 0.08 0.06 0.04 0.02 0.01 0.01 0.01 0.01 0.00 0.00 0.01 0.01
0.08 0.08 0.07 0.06 0.05 0.06 0.07 0.05 0.04 0.04 0.04 0.04 0.04 0.04 0.05 0.07 0.08 0.09 0.09 0.11 0.13 0.12 0.12 0.13 0.14 0.13 0.12 0.11 0.10 0.09 0.08 0.07 0.07 0.06 0.03 0.02 0.01 0.01 0.00 0.00 0.00 0.00 0.01
0.06 0.04 0.04 0.04 0.03 0.04 0.03 0.03 0.04 0.03 0.02 0.03 0.03 0.03 0.04 0.05 0.07 0.08 0.09 0.10 0.13 0.13 0.13 0.15 0.15 0.15 0.13 0.10 0.09 0.08 0.07 0.05 0.05 0.05 0.03 0.01 0.01 0.00 0.01 0.00 0.00 0.01 0.00
0.04 0.04 0.04 0.06 0.05 0.04 0.02 0.02 0.02 0.02 0.01 0.02 0.03 0.03 0.04 0.04 0.05 0.08 0.10 0.11 0.12 0.13 0.13 0.13 0.11 0.11 0.12 0.11 0.09 0.08 0.05 0.05 0.04 0.04 0.02 0.01 0.01 0.00 0.02 0.02 0.02 0.02 0.02
0.02 0.02 0.04 0.09 0.09 0.05 0.02 0.02 0.01 0.02 0.02 0.02 0.02 0.03 0.04 0.04 0.04 0.05 0.07 0.09 0.11 0.12 0.12 0.11 0.11 0.10 0.08 0.07 0.06 0.06 0.05 0.04 0.03 0.03 0.02 0.01 0.01 0.01 0.01 0.02 0.02 0.03 0.02
0.00 0.01 0.01 0.01 0.04 0.06 0.04 0.02 0.01 0.02 0.02 0.01 0.01 0.02 0.03 0.04 0.05 0.05 0.07 0.07 0.10 0.11 0.12 0.12 0.11 0.10 0.07 0.05 0.05 0.05 0.05 0.04 0.03 0.02 0.01 0.01 0.00 0.00 0.01 0.01 0.02 0.02 0.02
0.00 0.00 0.00 0.00 0.01 0.03 0.05 0.03 0.02 0.02 0.02 0.01 0.01 0.01 0.02 0.06 0.08 0.07 0.08 0.08 0.09 0.11 0.11 0.13 0.13 0.11 0.11 0.11 0.07 0.03 0.02 0.02 0.02 0.02 0.01 0.01 0.01 0.00 0.01 0.01 0.02 0.03 0.02
0.00 0.00 0.00 0.00 0.00 0.00 0.00 0.01 0.01 0.01 0.01 0.01 0.00 0.01 0.02 0.06 0.09 0.08 0.07 0.08 0.09 0.11 0.13 0.12 0.14 0.11 0.09 0.10 0.07 0.07 0.04 0.01 0.02 0.01 0.01 0.01 0.00 0.00 0.00 0.01 0.01 0.01 0.01
0.00 0.00 0.00 0.00 0.00 0.00 0.00 0.00 0.00 0.00 0.00 0.00 0.00 0.00 0.01 0.03 0.04 0.04 0.05 0.07 0.08 0.08 0.11 0.10 0.11 0.08 0.08 0.10 0.11 0.10 0.06 0.02 0.02 0.02 0.02 0.01 0.00 0.00 0.00 0.01 0.02 0.02 0.01
0.00 0.00 0.00 0.00 0.00 0.00 0.00 0.00 0.00 0.00 0.00 0.00 0.00 0.00 0.01 0.02 0.03 0.03 0.05 0.06 0.06 0.07 0.08 0.08 0.10 0.09 0.08 0.09 0.10 0.13 0.10 0.03 0.01 0.01 0.01 0.00 0.00 0.00 0.00 0.01 0.02 0.03 0.02
0.00 0.00 0.00 0.00 0.00 0.00 0.00 0.00 0.00 0.00 0.00 0.00 0.00 0.01 0.00 0.01 0.02 0.04 0.05 0.05 0.07 0.07 0.09 0.07 0.06 0.08 0.07 0.07 0.08 0.08 0.08 0.04 0.03 0.02 0.02 0.01 0.01 0.00 0.00 0.00 0.00 0.01 0.02
0.00 0.00 0.00 0.00 0.00 0.00 0.00 0.00 0.00 0.00 0.00 0.00 0.01 0.01 0.01 0.01 0.01 0.02 0.04 0.06 0.07 0.07 0.07 0.06 0.04 0.06 0.06 0.05 0.05 0.04 0.05 0.06 0.04 0.03 0.02 0.02 0.01 0.00 0.00 0.00 0.00 0.00 0.00
0.00 0.00 0.00 0.00 0.00 0.00 0.00 0.00 0.00 0.00 0.00 0.00 0.00 0.00 0.01 0.01 0.01 0.03 0.05 0.07 0.06 0.05 0.05 0.06 0.05 0.05 0.04 0.03 0.04 0.05 0.06 0.06 0.05 0.04 0.03 0.02 0.02 0.01 0.00 0.00 0.00 0.00 0.00
0.00 0.00 0.00 0.00 0.00 0.00 0.00 0.00 0.00 0.00 0.00 0.00 0.00 0.00 0.01 0.01 0.01 0.01 0.03 0.03 0.04 0.04 0.04 0.04 0.04 0.03 0.03 0.02 0.03 0.03 0.04 0.04 0.05 0.04 0.02 0.02 0.01 0.01 0.01 0.01 0.01 0.00 0.00
0.00 0.00 0.00 0.00 0.00 0.00 0.00 0.00 0.00 0.00 0.00 0.00 0.00 0.00 0.00 0.01 0.00 0.01 0.01 0.01 0.02 0.02 0.02 0.02 0.02 0.02 0.02 0.01 0.02 0.01 0.01 0.02 0.02 0.01 0.01 0.01 0.01 0.01 0.01 0.01 0.00 0.00 0.00
0.00 0.00 0.00 0.00 0.00 0.00 0.00 0.00 0.00 0.00 0.00 0.00 0.00 0.00 0.00 0.00 0.00 0.00 0.01 0.01 0.01 0.01 0.01 0.01 0.01 0.01 0.01 0.01 0.01 0.00 0.01 0.01 0.01 0.01 0.02 0.02 0.01 0.01 0.00 0.00 0.00 0.00 0.00
0.00 0.00 0.00 0.00 0.00 0.00 0.00 0.00 0.00 0.00 0.00 0.00 0.00 0.00 0.00 0.00 0.00 0.00 0.00 0.00 0.00 0.00 0.01 0.01 0.01 0.01 0.01 0.00 0.00 0.00 0.00 0.00 0.00 0.01 0.01 0.01 0.01 0.01 0.00 0.00 0.00 0.00 0.00
0.00 0.00 0.00 0.00 0.00 0.00 0.00 0.00 0.00 0.00 0.00 0.00 0.00 0.00 0.00 0.00 0.00 0.00 0.00 0.00 0.00 0.00 0.01 0.00 0.00 0.00 0.00 0.00 0.00 0.00 0.00 0.00 0.00 0.01 0.01 0.01 0.00 0.00 0.00 0.00 0.00 0.00 0.00
0.00 0.00 0.00 0.00 0.00 0.00 0.00 0.00 0.00 0.00 0.00 0.00 0.00 0.00 0.00 0.00 0.00 0.00 0.00 0.00 0.00 0.00 0.00 0.00 0.00 0.00 0.00 0.00 0.00 0.00 0.00 0.00 0.00 0.00 0.00 0.00 0.00 0.00 0.00 0.00 0.00 0.00 0.00
0.00 0.00 0.00 0.00 0.00 0.00 0.00 0.00 0.00 0.00 0.00 0.00 0.00 0.00 0.00 0.00 0.00 0.00 0.00 0.00 0.00 0.00 0.00 0.00 0.00 0.00 0.00 0.00 0.00 0.00 0.00 0.00 0.00 0.00 0.00 0.00 0.00 0.00 0.00 0.00 0.00 0.00 0.00
0.00 0.00 0.00 0.00 0.00 0.00 0.00 0.00 0.00 0.00 0.00 0.00 0.00 0.00 0.00 0.00 0.00 0.00 0.00 0.00 0.00 0.00 0.00 0.00 0.00 0.00 0.00 0.00 0.00 0.00 0.00 0.00 0.00 0.00 0.00 0.00 0.00 0.00 0.00 0.00 0.00 0.00 0.00
0.00 0.00 0.00 0.00 0.00 0.00 0.00 0.00 0.00 0.00 0.00 0.00 0.00 0.00 0.00 0.00 0.00 0.00 0.00 0.00 0.00 0.00 0.00 0.00 0.00 0.00 0.00 0.00 0.00 0.00 0.00 0.00 0.00 0.00 0.00 0.00 0.00 0.00 0.00 0.00 0.00 0.00 0.00
0.00 0.00 0.00 0.00 0.00 0.00 0.00 0.00 0.00 0.00 0.00 0.00 0.00 0.00 0.00 0.00 0.00 0.00 0.00 0.00 0.00 0.00 0.00 0.00 0.00 0.00 0.00 0.00 0.00 0.00 0.00 0.00 0.00 0.00 0.00 0.00 0.00 0.00 0.00 0.00 0.00 0.00 0.00
0.00 0.00 0.00 0.00 0.00 0.00 0.00 0.00 0.00 0.00 0.00 0.00 0.00 0.00 0.00 0.00 0.00 0.00 0.00 0.00 0.00 0.00 0.00 0.00 0.00 0.00 0.00 0.00 0.00 0.00 0.00 0.00 0.00 0.00 0.00 0.00 0.00 0.00 0.00 0.00 0.00 0.00 0.00
0.00 0.00 0.00 0.00 0.00 0.00 0.00 0.00 0.00 0.00 0.00 0.00 0.00 0.00 0.00 0.00 0.00 0.00 0.00 0.00 0.00 0.00 0.00 0.00 0.00 0.00 0.00 0.00 0.00 0.00 0.00 0.00 0.00 0.00 0.00 0.00 0.00 0.00 0.00 0.00 0.00 0.00 0.00
0.00 0.00 0.00 0.00 0.00 0.00 0.00 0.00 0.00 0.00 0.00 0.00 0.00 0.00 0.00 0.00 0.00 0.00 0.00 0.00 0.00 0.00 0.00 0.00 0.00 0.00 0.00 0.00 0.00 0.00 0.00 0.00 0.00 0.00 0.00 0.00 0.00 0.00 0.00 0.00 0.00 0.00 0.00
MSLP
1015.36 1015.02 1014.72 1014.45 1014.19 1013.93 1013.67 1013.40 1013.13 1012.86 1012.63 1012.42 1012.28 1012.19 1012.16 1012.19 1012.27 1012.38 1012.52 1012.69 1012.88 1013.11 1013.38 1013.70 1014.08 1014.52 1014.99 1015.49 1015.97 1016.41 1016.76 1017.01 1017.14 1017.16 1017.08 1016.94 1016.79 1016.66 1016.60 1016.61 1016.73 1016.93 1017.21
1015.83 1015.51 1015.21 1014.94 1014.68 1014.43 1014.18 1013.92 1013.66 1013.41 1013.18 1012.98 1012.83 1012.72 1012.68 1012.68 1012.73 1012.81 1012.91 1013.04 1013.17 1013.33 1013.51 1013.74 1014.02 1014.35 1014.73 1015.14 1015.57 1015.97 1016.33 1016.61 1016.79 1016.88 1016.88 1016.82 1016.73 1016.66 1016.62 1016.66 1016.78 1016.98 1017.24
1016.34 1016.02 1015.73 1015.45 1015.19 1014.93 1014.69 1014.44 1014.19 1013.96 1013.73 1013.53 1013.38 1013.26 1013.20 1013.18 1013.20 1013.25 1013.32 1013.39 1013.48 1013.57 1013.68 1013.81 1013.99 1014.22 1014.50 1014.83 1015.19 1015.55 1015.90 1016.19 1016.42 1016.58 1016.66 1016.69 1016.68 1016.68 1016.70 1016.78 1016.92 1017.13 1017.40
1016.84 1016.53 1016.24 1015.95 1015.68 1015.42 1015.17 1014.93 1014.69 1014.46 1014.24 1014.04 1013.88 1013.75 1013.66 1013.62 1013.61 1013.63 1013.67 1013.71 1013.75 1013.79 1013.84 1013.90 1014.00 1014.15 1014.34 1014.59 1014.89 1015.21 1015.53 1015.83 1016.10 1016.31 1016.47 1016.58 1016.65 1016.72 1016.81 1016.94 1017.12 1017.36 1017.65
1017.30 1017.01 1016.72 1016.43 1016.16 1015.89 1015.64 1015.39 1015.15 1014.92 1014.69 1014.48 1014.30 1014.15 1014.04 1013.97 1013.94 1013.93 1013.94 1013.96 1013.97 1013.99 1014.00 1014.03 1014.08 1014.16 1014.29 1014.48 1014.71 1014.99 1015.28 1015.58 1015.86 1016.11 1016.32 1016.50 1016.65 1016.79 1016.95 1017.13 1017.36 1017.63 1017.93
1017.69 1017.43 1017.16 1016.89 1016.61 1016.35 1016.09 1015.84 1015.59 1015.35 1015.11 1014.88 1014.67 1014.49 1014.34 1014.24 1014.17 1014.14 1014.13 1014.14 1014.16 1014.17 1014.18 1014.20 1014.23 1014.29 1014.38 1014.52 1014.71 1014.94 1015.20 1015.47 1015.75 1016.02 1016.26 1016.48 1016.68 1016.88 1017.09 1017.33 1017.59 1017.89 1018.22
1018.00 1017.80 1017.56 1017.32 1017.07 1016.82 1016.56 1016.31 1016.05 1015.79 1015.52 1015.26 1015.02 1014.79 1014.60 1014.46 1014.36 1014.30 1014.29 1014.30 1014.33 1014.36 1014.40 1014.43 1014.48 1014.53 1014.62 1014.73 1014.88 1015.07 1015.29 1015.53 1015.78 1016.03 1016.28 1016.53 1016.76 1016.99 1017.24 1017.51 1017.80 1018.12 1018.46
1018.27 1018.12 1017.94 1017.74 1017.53 1017.30 1017.06 1016.81 1016.55 1016.27 1015.97 1015.68 1015.38 1015.11 1014.87 1014.68 1014.55 1014.47 1014.45 1014.47 1014.52 1014.59 1014.67 1014.75 1014.83 1014.91 1014.99 1015.09 1015.22 1015.37 1015.54 1015.74 1015.95 1016.18 1016.41 1016.64 1016.88 1017.13 1017.39 1017.68 1017.98 1018.31 1018.66
1018.51 1018.43 1018.31 1018.17 1018.00 1017.81 1017.60 1017.36 1017.09 1016.80 1016.48 1016.15 1015.81 1015.49 1015.20 1014.97 1014.80 1014.70 1014.67 1014.70 1014.78 1014.89 1015.01 1015.14 1015.26 1015.37 1015.47 1015.57 1015.68 1015.79 1015.92 1016.07 1016.24 1016.43 1016.63 1016.84 1017.07 1017.31 1017.57 1017.85 1018.15 1018.47 1018.80
1018.74 1018.72 1018.67 1018.59 1018.47 1018.33 1018.15 1017.93 1017.68 1017.38 1017.05 1016.69 1016.31 1015.95 1015.61 1015.34 1015.13 1015.01 1014.97 1015.01 1015.10 1015.25 1015.41 1015.58 1015.74 1015.88 1016.00 1016.11 1016.20 1016.29 1016.38 1016.49 1016.62 1016.76 1016.93 1017.11 1017.32 1017.54 1017.78 1018.04 1018.32 1018.62 1018.93
1018.97 1019.01 1019.01 1018.98 1018.91 1018.82 1018.68 1018.49 1018.26 1017.97 1017.64 1017.26 1016.87 1016.48 1016.11 1015.80 1015.57 1015.42 1015.36 1015.39 1015.50 1015.65 1015.84 1016.04 1016.22 1016.39 1016.52 1016.63 1016.72 1016.79 1016.86 1016.94 1017.03 1017.15 1017.28 1017.44 1017.63 1017.83 1018.05 1018.29 1018.54 1018.81 1019.08
1019.19 1019.25 1019.29 1019.31 1019.29 1019.23 1019.14 1018.99 1018.79 1018.53 1018.21 1017.85 1017.46 1017.06 1016.68 1016.34 1016.08 1015.91 1015.83 1015.84 1015.93 1016.08 1016.27 1016.47 1016.66 1016.83 1016.98 1017.09 1017.17 1017.24 1017.31 1017.37 1017.45 1017.55 1017.68 1017.82 1017.99 1018.17 1018.37 1018.58 1018.81 1019.04 1019.28
1019.36 1019.44 1019.49 1019.53 1019.55 1019.53 1019.48 1019.38 1019.22 1019.01 1018.73 1018.40 1018.03 1017.65 1017.27 1016.93 1016.66 1016.46 1016.35 1016.33 1016.39 1016.51 1016.67 1016.85 1017.03 1017.19 1017.33 1017.44 1017.53 1017.61 1017.68 1017.75 1017.84 1017.95 1018.07 1018.22 1018.38 1018.56 1018.75 1018.94 1019.14 1019.34 1019.54
1019.45 1019.51 1019.58 1019.62 1019.66 1019.68 1019.67 1019.62 1019.52 1019.36 1019.14 1018.87 1018.55 1018.21 1017.86 1017.53 1017.25 1017.04 1016.89 1016.83 1016.84 1016.91 1017.03 1017.17 1017.31 1017.45 1017.58 1017.69 1017.79 1017.88 1017.97 1018.07 1018.18 1018.31 1018.46 1018.62 1018.79 1018.97 1019.15 1019.33 1019.51 1019.69 1019.86
1019.41 1019.47 1019.52 1019.57 1019.62 1019.66 1019.69 1019.69 1019.66 1019.57 1019.43 1019.23 1018.98 1018.70 1018.40 1018.11 1017.84 1017.61 1017.44 1017.34 1017.29 1017.30 1017.35 1017.44 1017.53 1017.64 1017.75 1017.85 1017.96 1018.07 1018.19 1018.33 1018.48 1018.64 1018.82 1019.01 1019.19 1019.38 1019.56 1019.74 1019.90 1020.06 1020.22
1019.26 1019.29 1019.32 1019.37 1019.43 1019.49 1019.56 1019.61 1019.64 1019.64 1019.58 1019.47 1019.31 1019.11 1018.87 1018.62 1018.38 1018.16 1017.97 1017.82 1017.73 1017.68 1017.67 1017.69 1017.74 1017.81 1017.89 1017.99 1018.10 1018.23 1018.38 1018.55 1018.74 1018.94 1019.14 1019.36 1019.56 1019.76 1019.94 1020.12 1020.27 1020.43 1020.57
1018.99 1019.00 1019.02 1019.06 1019.12 1019.21 1019.31 1019.41 1019.50 1019.57 1019.61 1019.59 1019.52 1019.41 1019.25 1019.06 1018.85 1018.65 1018.46 1018.29 1018.16 1018.06 1017.99 1017.96 1017.96 1018.00 1018.06 1018.15 1018.26 1018.41 1018.58 1018.78 1018.99 1019.21 1019.44 1019.67 1019.88 1020.08 1020.27 1020.44 1020.59 1020.74 1020.88
1018.64 1018.64 1018.65 1018.69 1018.75 1018.85 1018.97 1019.12 1019.27 1019.41 1019.52 1019.59 1019.61 1019.58 1019.50 1019.38 1019.23 1019.06 1018.89 1018.72 1018.57 1018.44 1018.34 1018.28 1018.25 1018.25 1018.29 1018.37 1018.49 1018.64 1018.82 1019.03 1019.25 1019.48 1019.72 1019.94 1020.15 1020.34 1020.52 1020.68 1020.82 1020.97 1021.11
1018.26 1018.25 1018.26 1018.29 1018.36 1018.46 1018.61 1018.78 1018.97 1019.16 1019.33 1019.47 1019.57 1019.62 1019.62 1019.57 1019.48 1019.36 1019.22 1019.08 1018.94 1018.81 1018.71 1018.63 1018.59 1018.58 1018.61 1018.69 1018.80 1018.95 1019.12 1019.32 1019.54 1019.76 1019.97 1020.18 1020.37 1020.53 1020.69 1020.83 1020.96 1021.10 1021.24
1017.88 1017.87 1017.88 1017.91 1017.97 1018.08 1018.23 1018.41 1018.62 1018.84 1019.05 1019.24 1019.40 1019.51 1019.58 1019.60 1019.57 1019.52 1019.43 1019.34 1019.23 1019.14 1019.06 1019.00 1018.97 1018.97 1019.00 1019.08 1019.18 1019.32 1019.48 1019.66 1019.85 1020.03 1020.21 1020.38 1020.53 1020.67 1020.79 1020.91 1021.02 1021.14 1021.27
1017.53 1017.53 1017.54 1017.56 1017.62 1017.72 1017.86 1018.03 1018.24 1018.46 1018.68 1018.89 1019.08 1019.24 1019.36 1019.44 1019.49 1019.50 1019.49 1019.46 1019.42 1019.38 1019.35 1019.33 1019.34 1019.37 1019.42 1019.50 1019.60 1019.72 1019.86 1020.01 1020.16 1020.30 1020.44 1020.56 1020.67 1020.76 1020.85 1020.93 1021.02 1021.12 1021.24
1017.22 1017.22 1017.23 1017.26 1017.30 1017.38 1017.49 1017.64 1017.82 1018.02 1018.23 1018.45 1018.65 1018.83 1018.98 1019.11 1019.22 1019.30 1019.36 1019.41 1019.45 1019.49 1019.53 1019.58 1019.64 1019.71 1019.79 1019.89 1020.00 1020.11 1020.23 1020.34 1020.45 1020.56 1020.65 1020.72 1020.78 1020.84 1020.89 1020.94 1021.00 1021.07 1021.17
1016.93 1016.95 1016.96 1016.97 1017.00 1017.05 1017.13 1017.25 1017.38 1017.54 1017.72 1017.91 1018.10 1018.28 1018.46 1018.62 1018.77 1018.92 1019.05 1019.18 1019.31 1019.43 1019.56 1019.69 1019.81 1019.94 1020.06 1020.19 1020.31 1020.42 1020.52 1020.62 1020.70 1020.77 1020.82 1020.86 1020.89 1020.91 1020.93 1020.95 1020.99 1021.04 1021.11
1016.64 1016.67 1016.68 1016.69 1016.70 1016.72 1016.77 1016.84 1016.93 1017.04 1017.17 1017.32 1017.48 1017.65 1017.82 1018.01 1018.19 1018.39 1018.58 1018.79 1018.99 1019.20 1019.41 1019.61 1019.81 1020.00 1020.18 1020.34 1020.48 1020.61 1020.71 1020.80 1020.86 1020.91 1020.94 1020.97 1020.98 1020.98 1020.99 1020.99 1021.01 1021.04 1021.08
1016.32 1016.36 1016.38 1016.38 1016.38 1016.38 1016.39 1016.42 1016.46 1016.52 1016.61 1016.71 1016.83 1016.98 1017.14 1017.32 1017.53 1017.75 1017.99 1018.25 1018.52 1018.80 1019.08 1019.36 1019.63 1019.88 1020.11 1020.31 1020.49 1020.63 1020.75 1020.85 1020.92 1020.97 1021.01 1021.03 1021.05 1021.05 1021.06 1021.06 1021.07 1021.08 1021.11
1015.94 1016.00 1016.02 1016.03 1016.02 1016.01 1015.99 1015.99 1015.99 1016.02 1016.05 1016.12 1016.20 1016.31 1016.45 1016.62 1016.82 1017.06 1017.32 1017.61 1017.93 1018.26 1018.60 1018.93 1019.26 1019.56 1019.84 1020.09 1020.31 1020.49 1020.64 1020.76 1020.86 1020.93 1020.99 1021.04 1021.07 1021.10 1021.12 1021.14 1021.15 1021.16 1021.16
Thickness
5634 5636 5639 5643 5647 5652 5656 5660 5665 5670 5674 5677 5681 5684 5686 5687 5689 5691 5692 5693 5693 5693 5693 5692 5691 5690 5689 5688 5687 5687 5687 5688 5685 5687 5690 5691 5691 5693 5693 5693 5694 5693 5691
5633 5636 5639 5641 5644 5647 5650 5653 5658 5662 5665 5669 5671 5673 5675 5677 5678 5680 5682 5683 5684 5683 5683 5683 5682 5682 5681 5681 5680 5680 5681 5681 5680 5678 5680 5682 5683 5684 5685 5686 5687 5686 5686
5633 5635 5638 5640 5641 5643 5645 5648 5651 5654 5657 5659 5661 5663 5665 5667 5669 5670 5671 5673 5674 5674 5675 5674 5674 5673 5672 5673 5673 5674 5674 5676 5675 5674 5673 5674 5675 5676 5677 5678 5680 5680 5679
5634 5635 5636 5637 5639 5640 5641 5643 5645 5647 5648 5650 5652 5653 5655 5657 5659 5661 5662 5663 5665 5666 5666 5667 5667 5667 5666 5667 5667 5668 5668 5668 5668 5668 5667 5667 5667 5669 5671 5671 5672 5672 5672
5637 5636 5635 5636 5637 5638 5638 5639 5640 5640 5641 5642 5643 5644 5646 5648 5649 5651 5653 5655 5655 5656 5657 5658 5659 5659 5660 5661 5663 5663 5662 5662 5662 5662 5662 5662 5662 5663 5665 5667 5666 5666 5665
5638 5636 5635 5636 5635 5635 5635 5635 5635 5634 5634 5635 5635 5636 5637 5637 5638 5640 5643 5646 5647 5648 5649 5650 5651 5652 5652 5652 5654 5656 5657 5659 5659 5660 5659 5660 5659 5660 5661 5662 5662 5661 5657
5640 5637 5636 5635 5634 5633 5632 5631 5630 5628 5627 5627 5626 5627 5628 5628 5630 5632 5634 5638 5638 5639 5640 5642 5644 5645 5647 5648 5647 5648 5649 5651 5654 5659 5658 5658 5657 5658 5658 5658 5658 5656 5652
5640 5637 5635 5634 5632 5630 5628 5626 5625 5624 5621 5620 5619 5620 5620 5621 5622 5624 5626 5630 5630 5631 5633 5635 5638 5640 5642 5644 5646 5646 5647 5646 5650 5654 5655 5654 5654 5654 5655 5655 5654 5651 5648
5640 5637 5635 5633 5630 5628 5626 5623 5621 5619 5616 5615 5613 5613 5613 5614 5615 5617 5619 5622 5623 5624 5626 5628 5631 5633 5633 5637 5641 5640 5639 5638 5639 5641 5643 5644 5643 5645 5648 5650 5649 5647 5643
5640 5638 5636 5633 5629 5626 5623 5621 5618 5616 5613 5611 5608 5607 5607 5608 5608 5610 5612 5616 5616 5617 5618 5621 5622 5625 5626 5630 5636 5636 5635 5635 5636 5636 5638 5638 5641 5640 5642 5647 5647 5646 5643
5642 5638 5635 5633 5629 5624 5621 5619 5616 5613 5611 5608 5606 5604 5603 5602 5603 5603 5605 5610 5609 5610 5611 5614 5616 5617 5620 5624 5630 5633 5632 5634 5635 5635 5636 5637 5638 5638 5639 5640 5641 5642 5640
5643 5639 5636 5632 5629 5625 5620 5617 5615 5613 5610 5607 5605 5602 5601 5600 5598 5598 5600 5601 5604 5605 5606 5608 5610 5612 5615 5619 5623 5624 5626 5630 5632 5631 5631 5631 5632 5632 5632 5632 5633 5633 5633
5646 5641 5638 5634 5629 5625 5621 5617 5614 5612 5609 5607 5603 5601 5600 5599 5598 5596 5597 5597 5599 5601 5601 5601 5604 5607 5611 5614 5615 5618 5622 5626 5627 5626 5626 5626 5626 5626 5626 5626 5627 5626 5626
5649 5645 5641 5637 5632 5627 5621 5618 5614 5611 5609 5606 5603 5601 5600 5600 5597 5598 5598 5598 5597 5598 5599 5599 5601 5604 5608 5609 5612 5616 5620 5621 5623 5623 5622 5622 5622 5622 5623 5624 5625 5625 5623
5654 5649 5645 5640 5635 5630 5625 5619 5616 5610 5606 5604 5604 5603 5600 5599 5594 5593 5597 5600 5600 5600 5601 5603 5605 5606 5608 5609 5611 5614 5616 5618 5619 5619 5620 5620 5620 5620 5620 5622 5622 5624 5622
5659 5654 5649 5644 5639 5635 5631 5626 5615 5612 5607 5604 5602 5601 5601 5597 5596 5596 5597 5598 5599 5601 5604 5604 5605 5606 5607 5609 5611 5612 5614 5615 5617 5618 5619 5619 5619 5619 5620 5620 5621 5621 5619
5662 5658 5653 5649 5645 5640 5636 5632 5628 5620 5613 5609 5606 5604 5602 5601 5600 5600 5600 5601 5602 5605 5608 5607 5606 5607 5608 5610 5611 5612 5613 5614 5616 5618 5618 5619 5620 5620 5620 5620 5619 5619 5617
5666 5660 5656 5653 5649 5646 5642 5638 5634 5630 5627 5622 5614 5608 5606 5605 5605 5605 5605 5608 5609 5610 5610 5609 5609 5609 5610 5611 5612 5613 5614 5615 5616 5618 5619 5619 5620 5620 5620 5619 5619 5617 5616
5669 5665 5661 5658 5654 5651 5647 5644 5640 5636 5633 5629 5625 5619 5613 5611 5610 5610 5612 5615 5614 5613 5612 5611 5611 5611 5612 5612 5613 5614 5615 5616 5617 5618 5618 5618 5619 5620 5619 5619 5617 5609 5614
5672 5665 5662 5661 5659 5656 5653 5649 5646 5643 5640 5636 5633 5629 5625 5623 5623 5620 5619 5619 5618 5616 5615 5614 5613 5613 5613 5614 5614 5615 5617 5617 5617 5618 5618 5618 5619 5619 5618 5617 5617 5616 5615
5676 5671 5663 5663 5664 5661 5658 5655 5652 5649 5646 5643 5639 5634 5627 5630 5628 5625 5624 5623 5622 5620 5619 5618 5617 5616 5616 5616 5616 5617 5618 5619 5619 5619 5619 5618 5619 5618 5617 5617 5616 5615 5614
5678 5676 5672 5670 5667 5664 5663 5661 5658 5655 5652 5649 5645 5640 5631 5634 5634 5632 5630 5627 5626 5624 5622 5621 5621 5620 5618 5619 5619 5620 5621 5621 5620 5620 5620 5619 5618 5618 5617 5616 5615 5614 5612
5679 5677 5675 5673 5671 5666 5664 5664 5662 5660 5658 5655 5652 5648 5644 5642 5641 5638 5636 5634 5631 5629 5626 5625 5625 5623 5622 5621 5621 5621 5623 5622 5621 5621 5621 5620 5619 5618 5617 5616 5613 5612 5611
5680 5678 5676 5676 5673 5672 5670 5669 5667 5665 5662 5660 5658 5655 5652 5649 5647 5645 5642 5639 5636 5634 5632 5630 5629 5628 5626 5625 5624 5623 5623 5622 5620 5620 5619 5620 5619 5618 5616 5614 5613 5611 5610
5680 5679 5677 5677 5675 5673 5672 5672 5670 5669 5667 5664 5663 5661 5659 5656 5653 5651 5648 5645 5641 5639 5637 5635 5633 5631 5630 5628 5627 5626 5624 5621 5620 5620 5618 5618 5617 5616 5615 5613 5612 5610 5608
5678 5677 5676 5676 5675 5674 5673 5673 5672 5671 5670 5668 5666 5665 5663 5661 5658 5656 5653 5649 5646 5644 5641 5639 5637 5635 5633 5631 5630 5627 5624 5622 5619 5618 5618 5618 5617 5615 5613 5612 5609 5607 5605